Regional Weather Roundup
Issued by NWS

Home | Current Version | Previous Version | Text Only | Print | Product List | Glossary Off
Versions: 1 2 3 4 5 6 7 8 9 10 11 12 13 14 15 16 17 18 19 20 21 22 23 24 25 26 27 28 29 30 31 32 33 34 35 36 37 38 39 40 41 42 43 44 45 46 47 48 49 50

044
ASUS44 KJAN 250210
RWRMS

MISSISSIPPI HOURLY WEATHER ROUNDUP
NATIONAL WEATHER SERVICE JACKSON MS
900 PM CDT THU JUL 24 2014

NOTE: "FAIR: INDICATES FEW OR NO CLOUDS BELOW 12,000 FEET WITH NO
SIGNIFICANT WEATHER AND/OR OBSTRUCTIONS TO VISIBILITY.

MSZ001>002-007>008-010>013-018>021-025>028-034>036-250300-
NORTHWEST MISSISSIPPI

CITY           SKY/WX    TMP DP  RH WIND       PRES   REMARKS
CLARKSDALE     FAIR      68  64  88 CALM      30.02R
CLEVELAND      FAIR      72  71  95 N3        30.00R
GREENWOOD      CLEAR     73  65  75 N5        29.99R
GREENVILLE     CLEAR     74  69  85 NE5       29.99R
GRENADA        FAIR      72  63  73 CALM      30.01R
OLIVE BRANCH   CLEAR     70  66  88 CALM      30.02S
OXFORD         FAIR      70  61  73 N3        30.03R
TUNICA         CLEAR     68  61  77 N3        30.03R
$$

MSZ003>006-009-014>017-022>024-029>033-037>039-250300-
NORTHEAST MISSISSIPPI

CITY           SKY/WX    TMP DP  RH WIND       PRES   REMARKS
BELMONT        FAIR      72  63  73 CALM      30.01R
COLUMBUS AFB   CLEAR     76  67  74 N8        29.99R
CORINTH        FAIR      68  64  88 CALM      30.02R
GOLDN TRIANGLE PTCLDY    77  66  69 N8        29.99R
STARKVILLE     FAIR      77  68  73 CALM      29.99R
TUPELO         CLEAR     73  62  68 N5        30.00R
$$

MSZ040-058-250300-
CENTRAL MISSISSIPPI

CITY           SKY/WX    TMP DP  RH WIND       PRES   REMARKS
JACKSON INTL   PTCLDY    80  74  81 N6        29.98R
JACKSON HAWKNS CLEAR     82  72  71 VRB5      29.98R
MERIDIAN KEY   PTCLDY    75  73  93 SW3       29.97R
MERIDIAN NAS   PTCLDY    77  74  90 CALM      29.98R
RAYMOND        FAIR      79  73  83 CALM      29.98R
VICKSBURG      CLEAR     79  74  84 N7        29.97R
$$

MSZ059>079-250300-
SOUTH MISSISSIPPI

CITY           SKY/WX    TMP DP  RH WIND       PRES   REMARKS
BROOKHAVEN     FAIR      75  75 100 NE5       30.00R FOG
COLUMBIA       CLOUDY    79  73  83 SW6       29.96R
HATTIESBURG    MOCLDY    82  75  79 CALM      29.96R
MCCOMB         PTCLDY    79  73  82 NW3       29.98R
NATCHEZ        CLOUDY    81  75  83 SE7       29.98R
PINE BELT      CLEAR     79  72  78 CALM      29.98R
$$

MSZ080>082-250300-
COASTAL MISSISSIPPI

CITY           SKY/WX    TMP DP  RH WIND       PRES   REMARKS
BAY ST LOUIS   CLEAR    N/A N/A N/A CALM      29.97R
BILOXI         CLEAR     82  73  74 S6        29.96R
PASCAGOULA     CLEAR     78  74  87 S3        29.97R
GULFPORT       CLEAR     84  74  71 S5        29.96R HX  91
$$



USA.gov is the U.S. government's official web portal to all federal, state and local government web resources and services.